This is the latest recevied weather packets stored in our database for station/object KM4CNW. If no packets are shown the sender has not sent any weather packets the latest 10 day(s).
| Time | Temp. | Humidity | Pressure | Rain* | Wind** | Luminosity | Snow |
|---|---|---|---|---|---|---|---|
| 1777536876 | 15.56° C | 83% | 1003.6 hPa | 0 mm | - | 0 W/m² | - |
| 1777536575 | 15.56° C | 82% | 1003.3 hPa | 0 mm | - | 0 W/m² | - |
| 1777536271 | 15.56° C | 83% | 1003.5 hPa | 0 mm | - | 0 W/m² | - |
| 1777535966 | 15.56° C | 81% | 1003.5 hPa | 0 mm | - | 0 W/m² | - |
| 1777535663 | 15.56° C | 83% | 1003.5 hPa | 0 mm | - | 0 W/m² | - |
| 1777535360 | 16.11° C | 83% | 1003.3 hPa | 0 mm | - | 0 W/m² | - |
| 1777535057 | 16.11° C | 82% | 1003.3 hPa | 0 mm | - | 0 W/m² | - |
| 1777534755 | 16.11° C | 81% | 1003.2 hPa | 0 mm | - | 0 W/m² | - |
| 1777534451 | 15.56° C | 82% | 1003.1 hPa | 0 mm | - | 0 W/m² | - |
| 1777534148 | 15.56° C | 85% | 1003 hPa | 0 mm | - | 0 W/m² | - |
| 1777533846 | 15.56° C | 88% | 1002.9 hPa | 0 mm | - | 0 W/m² | - |
| 1777533542 | 15° C | 91% | 1002.8 hPa | 0 mm | - | 0 W/m² | - |
| 1777533238 | 15° C | 93% | 1002.6 hPa | 0 mm | - | 0 W/m² | - |
| 1777532935 | 15° C | 95% | 1002.4 hPa | 0 mm | - | 0 W/m² | - |
| 1777532632 | 15° C | 95% | 1002.7 hPa | 0 mm | - | 0 W/m² | - |
| 1777532329 | 15° C | 95% | 1002.8 hPa | 0 mm | - | 0 W/m² | - |
| 1777532024 | 15° C | 95% | 1002.6 hPa | 0 mm | - | 0 W/m² | - |
| 1777531721 | 15° C | 95% | 1002.6 hPa | 0 mm | - | 0 W/m² | - |
| 1777531418 | 15° C | 95% | 1002.9 hPa | 0 mm | - | 0 W/m² | - |
| 1777531115 | 15° C | 95% | 1002.9 hPa | 0 mm | - | 0 W/m² | - |
| 1777530813 | 15° C | 95% | 1002.9 hPa | 0 mm | - | 0 W/m² | - |
| 1777530510 | 15° C | 95% | 1003.1 hPa | 0 mm | - | 0 W/m² | - |
| 1777530206 | 15° C | 95% | 1003.1 hPa | 0 mm | - | 0 W/m² | - |
| 1777529904 | 15.56° C | 95% | 1003.1 hPa | 0 mm | - | 0 W/m² | - |
| 1777529600 | 15.56° C | 95% | 1003.2 hPa | 0 mm | - | 0 W/m² | - |
* Rain latest hour (hover to see other rain measurements)
** Current wind speed in m/s (hover to see current wind gust speed)